EW4229 Weather Reports


time (UTC)temp
C
wind
direction
speed
KPH
gust
KPH
rain 1hr
cm
rain 24hr
cm
rain mn
cm
humidity
%
barometer
mb
20260510021536 10 129 0.0 0.0 0.00 0.41 0.41 91 1010.4
20260510014523 11 128 0.0 1.6 0.00 0.41 0.41 90 1010.0
20260510013025 11 128 0.0 0.0 0.00 0.41 0.41 90 1009.7
20260510011525 11 128 0.0 0.0 0.00 0.41 0.41 88 1009.6
20260510004526 12 128 0.0 1.6 0.00 0.41 0.41 87 1009.2
20260510003020 12 128 0.0 0.0 0.00 0.41 0.41 86 1009.2
20260510001519 13 128 0.0 0.0 0.00 0.41 0.41 82 1009.1
20260509234521 16 136 0.0 1.6 0.00 0.41 0.41 78 1008.8
20260509233021 16 139 0.0 4.8 0.00 0.41 0.41 77 1008.7
20260509231520 16 143 3.2 6.4 0.00 0.41 0.41 76 1008.7
20260509224518 16 129 3.2 11.3 0.00 0.41 0.41 74 1008.8
20260509223017 17 144 1.6 6.4 0.00 0.41 0.41 74 1008.7
20260509221519 17 207 0.0 8.0 0.00 0.41 0.41 73 1008.7
20260509214513 16 146 0.0 4.8 0.00 0.41 0.41 75 1009.0
20260509213024 -17 0.0 0.0 0.00 0.41 0.41 1009.1
20260509211511 -17 0.0 0.0 0.00 0.41 0.41 1009.3
20260509204507 -17 0.0 0.0 0.00 0.41 0.41 1009.7
20260509203001 -17 82 0.0 0.0 0.00 0.41 0.41 1009.6
20260509201559 -17 0.0 0.0 0.00 0.41 0.41 1009.2
20260509194553 15 97 0.0 4.8 0.00 0.41 0.41 80 1009.7
20260509193058 15 48 0.0 8.0 0.00 0.41 0.41 79 1009.7
20260509191600 -17 0.0 0.0 0.00 0.41 0.41 1010.0
20260509184552 -17 0.0 0.0 0.00 0.41 0.41 1010.7
20260509183048 -17 0.0 0.0 0.00 0.41 0.41 1010.5
20260509181533 -17 0.0 0.0 0.00 0.41 0.41 1010.6
20260509174532 12 115 0.0 1.6 0.00 0.41 0.41 90 1010.7
20260509173033 12 142 0.0 1.6 0.00 0.41 0.41 90 1010.9
20260509171532 12 147 0.0 4.8 0.03 0.41 0.41 91 1011.1
20260509164530 11 137 1.6 6.4 0.13 0.41 0.41 93 1011.1
20260509163038 11 137 0.0 4.8 0.36 0.41 0.41 93 1010.8
20260509161529 11 102 0.0 4.8 0.33 0.38 0.38 93 1010.8
20260509154526 11 18 0.0 1.6 0.28 0.30 0.30 90 1011.3
20260509153033 -17 0.0 0.0 0.05 0.05 0.05 1011.9
20260509151522 -17 0.0 0.0 0.05 0.05 0.05 1012.0
20260509144529 12 141 0.0 1.6 0.03 0.03 0.03 84 1011.8
20260509143018 12 185 0.0 1.6 0.00 0.00 0.00 81 1011.6
20260509141515 12 158 0.0 0.0 0.00 0.00 0.00 82 1011.6
20260509134510 12 141 0.0 0.0 0.00 0.00 0.00 86 1011.5
20260509133009 11 136 0.0 0.0 0.00 0.00 0.00 86 1011.4
20260509131510 11 136 0.0 1.6 0.00 0.00 0.00 87 1011.3
20260509124505 11 105 3.2 6.4 0.00 0.00 0.00 86 1011.1
20260509123005 11 37 0.0 4.8 0.00 0.00 0.00 86 1011.1
20260509121509 11 267 0.0 0.0 0.00 0.00 0.00 86 1011.1
20260509114506 11 310 0.0 3.2 0.00 0.00 0.00 84 1010.8
20260509113005 10 122 0.0 1.6 0.00 0.00 0.00 84 1010.8
20260509111505 10 65 0.0 1.6 0.00 0.00 0.00 84 1011.0
20260509104511 10 254 0.0 1.6 0.00 0.00 0.00 85 1010.7
20260509103009 -17 0.0 0.0 0.00 0.00 0.00 1010.4
20260509101510 -17 0.0 0.0 0.00 0.00 0.00 1010.5
20260509094609 10 7 0.0 0.0 0.00 0.00 0.00 87 1010.3
20260509093057 10 105 0.0 0.0 0.00 0.00 0.00 86 1010.5
20260509091606 10 105 0.0 0.0 0.00 0.00 0.00 85 1010.6
20260509084600 10 124 0.0 1.6 0.00 0.00 0.00 82 1010.7
20260509083059 10 124 0.0 1.6 0.00 0.00 0.00 82 1010.7
20260509081554 10 276 0.0 0.0 0.00 0.00 0.00 82 1010.8
20260509074555 10 76 0.0 0.0 0.00 0.00 0.00 81 1011.0
20260509073052 10 68 0.0 1.6 0.00 0.00 0.00 80 1011.0
20260509071547 -17 0.0 0.0 0.00 0.00 0.00 1011.2
20260509064541 10 342 0.0 1.6 0.00 0.00 0.00 78 1011.3
20260509063039 -17 0.0 0.0 0.00 0.00 0.00 1011.4
20260509061536 -17 0.0 0.0 0.00 0.00 0.00 1011.4
20260509054533 -17 0.0 0.0 0.00 0.00 0.00 1011.4
20260509053039 -17 0.0 0.0 0.00 0.00 0.00 1011.4
20260509051524 -17 0.0 0.0 0.00 0.00 0.00 1011.9
20260509044520 -17 0.0 0.0 0.00 0.00 0.00 1011.9
20260509043017 11 309 0.0 0.0 0.00 0.00 0.00 76 1012.0
20260509041513 11 310 0.0 0.0 0.00 0.00 0.00 73 1011.9
20260509034508 12 313 0.0 1.6 0.00 0.00 0.00 70 1012.2
20260509033008 12 305 0.0 1.6 0.00 0.00 0.00 74 1012.6
20260509031509 12 161 0.0 1.6 0.00 0.00 0.00 72 1012.4
20260509024512 12 162 0.0 3.2 0.00 0.00 0.00 71 1012.5
20260509023008 12 303 0.0 3.2 0.00 0.00 0.00 76 1012.1